This is the latest recevied weather packets stored in our database for station/object SP6KBU-8. If no packets are shown the sender has not sent any weather packets the latest 10 day(s).
| Time | Temp. | Humidity | Pressure | Rain* | Wind** | Luminosity | Snow |
|---|---|---|---|---|---|---|---|
| 1777744292 | 19.44° C | 27% | 1020.1 hPa | - | - | - | - |
| 1777743394 | 20.56° C | 25% | 1020.3 hPa | - | - | - | - |
| 1777742496 | 21.67° C | 24% | 1020.3 hPa | - | - | - | - |
| 1777741598 | 23.33° C | 22% | 1020.3 hPa | - | - | - | - |
| 1777740700 | 25° C | 20% | 1020.4 hPa | - | - | - | - |
| 1777739801 | 26.11° C | 20% | 1020.7 hPa | - | - | - | - |
| 1777738902 | 26.67° C | 19% | 1020.8 hPa | - | - | - | - |
| 1777738002 | 26.67° C | 19% | 1020.9 hPa | - | - | - | - |
| 1777737103 | 27.22° C | 18% | 1021.2 hPa | - | - | - | - |
| 1777736205 | 27.22° C | 17% | 1021.4 hPa | - | - | - | - |
| 1777735305 | 27.22° C | 17% | 1021.7 hPa | - | - | - | - |
| 1777734406 | 27.22° C | 18% | 1021.8 hPa | - | - | - | - |
| 1777733508 | 27.22° C | 18% | 1022 hPa | - | - | - | - |
| 1777732609 | 27.22° C | 18% | 1022.1 hPa | - | - | - | - |
| 1777731710 | 27.22° C | 18% | 1022.3 hPa | - | - | - | - |
| 1777730811 | 27.22° C | 18% | 1022.5 hPa | - | - | - | - |
| 1777729911 | 26.67° C | 18% | 1022.6 hPa | - | - | - | - |
| 1777729012 | 26.11° C | 18% | 1022.7 hPa | - | - | - | - |
| 1777728113 | 26.11° C | 19% | 1022.8 hPa | - | - | - | - |
| 1777727213 | 26.11° C | 19% | 1023.1 hPa | - | - | - | - |
| 1777726315 | 26.11° C | 19% | 1023.2 hPa | - | - | - | - |
| 1777725417 | 26.11° C | 20% | 1023.5 hPa | - | - | - | - |
| 1777724517 | 25.56° C | 20% | 1023.6 hPa | - | - | - | - |
| 1777723617 | 26.11° C | 20% | 1023.8 hPa | - | - | - | - |
| 1777721819 | 25.56° C | 20% | 1024.3 hPa | - | - | - | - |
* Rain since midnight (hover to see other rain measurements)
** Current wind speed in m/s (hover to see current wind gust speed)